Gedeeltelijk bewolkt
Gedeeltelijk bewolkt
Bewolkt
Bewolkt
Bewolkt
Overwegend bewolkt en weinig cirrus
Overwegend bewolkt en weinig cirrus
(°C)
(°C)
WZW
WZW
WZW
ZW
ZZW
Z
ZZO
(km/h)
6-16
6-18
6-18
5-18
4-16
4-15
3-15
(mm)
0
0
0
0
0
0
0
(%)
0
0
0
0
0
0
0

Zonverhoging

/ 34.4°
sun-icon
UV 2
05:18
19:49
Wassende gibbous maan (174°)
19:32
05:03

METAR voor 52.17°N 20.97°O (EPWA)

Tijd Voorwaarden Temperatuur/
Dauwpunt
Wind Zicht Weer Wolken Luchtdruk Wijzigen Ruw
VFR 5°C / -1°C 230º variable 200º to 290º 4kt 9700m - Few Clouds 2200ft 1022 No Significant change EPWA 230700Z 23004KT 200V290 9999 FEW022 05/M01 Q1022 NOSIG
VFR 4°C / -1°C 250º variable 220º to 280º 4kt 9700m - Clouds and Visibility OK 1021 No Significant change EPWA 230630Z 25004KT 220V280 CAVOK 04/M01 Q1021 NOSIG
VFR 3°C / -1°C 250º variable 220º to 280º 4kt 9700m - Clouds and Visibility OK 1021 No Significant change EPWA 230600Z 25004KT 220V280 CAVOK 03/M01 Q1021 NOSIG
VFR 3°C / -1°C 250º 4kt 9700m - Clouds and Visibility OK 1021 No Significant change EPWA 230530Z 25004KT CAVOK 03/M01 Q1021 NOSIG
VFR 2°C / -1°C 250º 4kt 9700m - Clouds and Visibility OK 1021 No Significant change EPWA 230500Z 25004KT CAVOK 02/M01 Q1021 NOSIG
VFR 2°C / -1°C 2kt 9700m - Clouds and Visibility OK 1021 No Significant change EPWA 230430Z VRB02KT CAVOK 02/M01 Q1021 NOSIG
VFR 2°C / -1°C 240º 3kt 9700m - Clouds and Visibility OK 1021 No Significant change EPWA 230400Z 24003KT CAVOK 02/M01 Q1021 NOSIG
VFR 2°C / -1°C 250º 4kt 9700m - Clouds and Visibility OK 1021 No Significant change EPWA 230330Z 25004KT CAVOK 02/M01 Q1021 NOSIG
VFR 2°C / -1°C 250º 5kt 9700m - Clouds and Visibility OK 1021 No Significant change EPWA 230300Z 25005KT CAVOK 02/M01 Q1021 NOSIG
VFR 2°C / -1°C 240º 5kt 9700m - Clouds and Visibility OK 1021 No Significant change EPWA 230230Z 24005KT CAVOK 02/M01 Q1021 NOSIG
VFR 2°C / -1°C 250º 4kt 9700m - Clouds and Visibility OK 1021 No Significant change EPWA 230200Z 25004KT CAVOK 02/M01 Q1021 NOSIG
VFR 2°C / -1°C 240º 4kt 9700m - Clouds and Visibility OK 1021 No Significant change EPWA 230130Z 24004KT CAVOK 02/M01 Q1021 NOSIG
VFR 2°C / -1°C 250º 5kt 9700m - Clouds and Visibility OK 1021 No Significant change EPWA 230100Z 25005KT CAVOK 02/M01 Q1021 NOSIG
VFR 2°C / -1°C 270º 5kt 9700m - Clouds and Visibility OK 1021 No Significant change EPWA 230030Z 27005KT CAVOK 02/M01 Q1021 NOSIG
VFR 3°C / -1°C 250º 5kt 9700m - Overcast 4700ft 1022 No Significant change EPWA 230000Z 25005KT 9999 OVC047 03/M01 Q1022 NOSIG
VFR 3°C / -1°C 260º 6kt 9700m - Overcast 4600ft 1022 No Significant change EPWA 222330Z 26006KT 9999 OVC046 03/M01 Q1022 NOSIG
VFR 3°C / -1°C 250º 5kt 9700m - Overcast 4600ft 1022 No Significant change EPWA 222300Z 25005KT 9999 OVC046 03/M01 Q1022 NOSIG
VFR 3°C / -1°C 260º 7kt 9700m - Overcast 4700ft 1022 No Significant change EPWA 222230Z 26007KT 9999 OVC047 03/M01 Q1022 NOSIG
VFR 3°C / -1°C 260º 6kt 9700m - Overcast 4800ft 1022 No Significant change EPWA 222200Z 26006KT 9999 OVC048 03/M01 Q1022 NOSIG
VFR 3°C / -1°C 260º 6kt 9700m - Broken Clouds 4800ft 1022 No Significant change EPWA 222130Z 26006KT 9999 BKN048 03/M01 Q1022 NOSIG
VFR 3°C / °C 250º 7kt 9700m - Broken Clouds 4600ft 1021 No Significant change EPWA 222100Z 25007KT 9999 BKN046 03/M11 Q1021 NOSIG
VFR 3°C / -1°C 260º 7kt 9700m - Broken Clouds 4200ft 1021 No Significant change EPWA 222030Z 26007KT 9999 BKN042 03/M01 Q1021 NOSIG
VFR 3°C / -1°C 260º 8kt 9700m - Broken Clouds 3900ft 1021 No Significant change EPWA 222000Z 26008KT 9999 BKN039 03/M01 Q1021 NOSIG
VFR 3°C / -1°C 260º 8kt 9700m - Broken Clouds 3800ft 1021 No Significant change EPWA 221930Z 26008KT 9999 BKN038 03/M01 Q1021 NOSIG

VFR

5°C / -1°C

[Meer]
Wind 230º variable 200º to 290º 4kt
Zicht 9700m
Weer -
Wolken Few Clouds 2200ft
Luchtdruk 1022
Wijzigen No Significant change
Ruw EPWA 230700Z 23004KT 200V290 9999 FEW022 05/M01 Q1022 NOSIG

VFR

4°C / -1°C

[Meer]
Wind 250º variable 220º to 280º 4kt
Zicht 9700m
Weer -
Wolken Clouds and Visibility OK
Luchtdruk 1021
Wijzigen No Significant change
Ruw EPWA 230630Z 25004KT 220V280 CAVOK 04/M01 Q1021 NOSIG

VFR

3°C / -1°C

[Meer]
Wind 250º variable 220º to 280º 4kt
Zicht 9700m
Weer -
Wolken Clouds and Visibility OK
Luchtdruk 1021
Wijzigen No Significant change
Ruw EPWA 230600Z 25004KT 220V280 CAVOK 03/M01 Q1021 NOSIG

VFR

3°C / -1°C

[Meer]
Wind 250º 4kt
Zicht 9700m
Weer -
Wolken Clouds and Visibility OK
Luchtdruk 1021
Wijzigen No Significant change
Ruw EPWA 230530Z 25004KT CAVOK 03/M01 Q1021 NOSIG

VFR

2°C / -1°C

[Meer]
Wind 250º 4kt
Zicht 9700m
Weer -
Wolken Clouds and Visibility OK
Luchtdruk 1021
Wijzigen No Significant change
Ruw EPWA 230500Z 25004KT CAVOK 02/M01 Q1021 NOSIG

VFR

2°C / -1°C

[Meer]
Wind 2kt
Zicht 9700m
Weer -
Wolken Clouds and Visibility OK
Luchtdruk 1021
Wijzigen No Significant change
Ruw EPWA 230430Z VRB02KT CAVOK 02/M01 Q1021 NOSIG

VFR

2°C / -1°C

[Meer]
Wind 240º 3kt
Zicht 9700m
Weer -
Wolken Clouds and Visibility OK
Luchtdruk 1021
Wijzigen No Significant change
Ruw EPWA 230400Z 24003KT CAVOK 02/M01 Q1021 NOSIG

VFR

2°C / -1°C

[Meer]
Wind 250º 4kt
Zicht 9700m
Weer -
Wolken Clouds and Visibility OK
Luchtdruk 1021
Wijzigen No Significant change
Ruw EPWA 230330Z 25004KT CAVOK 02/M01 Q1021 NOSIG

VFR

2°C / -1°C

[Meer]
Wind 250º 5kt
Zicht 9700m
Weer -
Wolken Clouds and Visibility OK
Luchtdruk 1021
Wijzigen No Significant change
Ruw EPWA 230300Z 25005KT CAVOK 02/M01 Q1021 NOSIG

VFR

2°C / -1°C

[Meer]
Wind 240º 5kt
Zicht 9700m
Weer -
Wolken Clouds and Visibility OK
Luchtdruk 1021
Wijzigen No Significant change
Ruw EPWA 230230Z 24005KT CAVOK 02/M01 Q1021 NOSIG

VFR

2°C / -1°C

[Meer]
Wind 250º 4kt
Zicht 9700m
Weer -
Wolken Clouds and Visibility OK
Luchtdruk 1021
Wijzigen No Significant change
Ruw EPWA 230200Z 25004KT CAVOK 02/M01 Q1021 NOSIG

VFR

2°C / -1°C

[Meer]
Wind 240º 4kt
Zicht 9700m
Weer -
Wolken Clouds and Visibility OK
Luchtdruk 1021
Wijzigen No Significant change
Ruw EPWA 230130Z 24004KT CAVOK 02/M01 Q1021 NOSIG

VFR

2°C / -1°C

[Meer]
Wind 250º 5kt
Zicht 9700m
Weer -
Wolken Clouds and Visibility OK
Luchtdruk 1021
Wijzigen No Significant change
Ruw EPWA 230100Z 25005KT CAVOK 02/M01 Q1021 NOSIG

VFR

2°C / -1°C

[Meer]
Wind 270º 5kt
Zicht 9700m
Weer -
Wolken Clouds and Visibility OK
Luchtdruk 1021
Wijzigen No Significant change
Ruw EPWA 230030Z 27005KT CAVOK 02/M01 Q1021 NOSIG

VFR

3°C / -1°C

[Meer]
Wind 250º 5kt
Zicht 9700m
Weer -
Wolken Overcast 4700ft
Luchtdruk 1022
Wijzigen No Significant change
Ruw EPWA 230000Z 25005KT 9999 OVC047 03/M01 Q1022 NOSIG

VFR

3°C / -1°C

[Meer]
Wind 260º 6kt
Zicht 9700m
Weer -
Wolken Overcast 4600ft
Luchtdruk 1022
Wijzigen No Significant change
Ruw EPWA 222330Z 26006KT 9999 OVC046 03/M01 Q1022 NOSIG

VFR

3°C / -1°C

[Meer]
Wind 250º 5kt
Zicht 9700m
Weer -
Wolken Overcast 4600ft
Luchtdruk 1022
Wijzigen No Significant change
Ruw EPWA 222300Z 25005KT 9999 OVC046 03/M01 Q1022 NOSIG

VFR

3°C / -1°C

[Meer]
Wind 260º 7kt
Zicht 9700m
Weer -
Wolken Overcast 4700ft
Luchtdruk 1022
Wijzigen No Significant change
Ruw EPWA 222230Z 26007KT 9999 OVC047 03/M01 Q1022 NOSIG

VFR

3°C / -1°C

[Meer]
Wind 260º 6kt
Zicht 9700m
Weer -
Wolken Overcast 4800ft
Luchtdruk 1022
Wijzigen No Significant change
Ruw EPWA 222200Z 26006KT 9999 OVC048 03/M01 Q1022 NOSIG

VFR

3°C / -1°C

[Meer]
Wind 260º 6kt
Zicht 9700m
Weer -
Wolken Broken Clouds 4800ft
Luchtdruk 1022
Wijzigen No Significant change
Ruw EPWA 222130Z 26006KT 9999 BKN048 03/M01 Q1022 NOSIG

VFR

3°C / °C

[Meer]
Wind 250º 7kt
Zicht 9700m
Weer -
Wolken Broken Clouds 4600ft
Luchtdruk 1021
Wijzigen No Significant change
Ruw EPWA 222100Z 25007KT 9999 BKN046 03/M11 Q1021 NOSIG

VFR

3°C / -1°C

[Meer]
Wind 260º 7kt
Zicht 9700m
Weer -
Wolken Broken Clouds 4200ft
Luchtdruk 1021
Wijzigen No Significant change
Ruw EPWA 222030Z 26007KT 9999 BKN042 03/M01 Q1021 NOSIG

VFR

3°C / -1°C

[Meer]
Wind 260º 8kt
Zicht 9700m
Weer -
Wolken Broken Clouds 3900ft
Luchtdruk 1021
Wijzigen No Significant change
Ruw EPWA 222000Z 26008KT 9999 BKN039 03/M01 Q1021 NOSIG

VFR

3°C / -1°C

[Meer]
Wind 260º 8kt
Zicht 9700m
Weer -
Wolken Broken Clouds 3800ft
Luchtdruk 1021
Wijzigen No Significant change
Ruw EPWA 221930Z 26008KT 9999 BKN038 03/M01 Q1021 NOSIG

TAF voor 52.17°N 20.97°O (EPWA)

From till


From till Wind 250º 4kt. Visibility 9700m. Scattered Clouds 4000ft.
Becoming from till

Ruw: TAF EPWA 230530Z 2306/2406 25004KT 9999 SCT040 BECMG 2319/2322 03010KT

Radar en neerslag nowcast voor 52.17°N 20.97°O

Motregen
Licht
Matig
Zwaar
Zeer zwaar
Hagel

De locatiemarkering is op 52.17°N 20.97°O geplaatst . Deze animatie toont de neerslagradar voor het geselecteerde tijdvak, alsmede een 2h voorspelling. Oranje kruisjes geven de bliksem aan. Gegevens verstrekt door nowcast.de (beschikbaar in de VS, Europa en Australië). Motregen of lichte sneeuwval kan onzichtbaar zijn voor de radar. De neerslagintensiteit heeft een kleurcode, gaande van turkoois tot rood.

Huidige satelliet- en regenbeelden voor 52.17°N 20.97°O

De locatiemarkering is op 52.17°N 20.97°O geplaatst. [Meer]

Het realtime satellietbeeld combineert zichtbaar licht overdag met infraroodstraling 's nachts. 's Nachts is het beeld niet donker, omdat infraroodstraling temperatuurverschillen kan waarnemen. Helaas zijn lage wolken en mist moeilijk te onderscheiden van grondtemperaturen en kunnen dus 's nachts bijna onzichtbaar zijn. Meteosat-satellietbeelden voor Europa worden elke 5 minuten in real time bijgewerkt. De beelden van GOES-16/GOES-17 (Noord- en Zuid-Amerika) en Himawari (Azië) worden om de 10 minuten bijgewerkt.

De neerslag wordt geschat met behulp van radar en satellieten. Neerslagschattingen van satellieten zijn 's nachts minder nauwkeurig dan overdag.

© 2024 meteoblue, NOAA Satellites GOES-16 and EUMETSAT. Bliksemgegevens verstrekt door nowcast.

Terug naar boven
×
Hallo daar,
Het lijkt erop dat u een advertentieblokker gebruikt.

Reclame is van essentieel belang om onze gratis website te onderhouden met unieke details en nauwkeurigheid.

Gelieve www.meteoblue.com te whitelisten op uw ad blocker of overweeg één van onze producten:

Heeft u al een abonnement?
Dan kunt u inloggen.